Location: Tel Aviv-Yafo
(32.0853°N, 34.7818°E)
Time: 20:19:00
(UTC+02:00)

BlueWalker 3 - Pass Details

Date: 23 January 2026
Orbit: 450 x 461 km, 53.2° (Epoch: 9 February)

Event Time Altitude Azimuth Distance (km) Brightness Sun altitude
Rises 18:11:16 0° 269° (W) 2,449 7.1 -13.9°
Reaches altitude 10° 18:14:29 10° 301° (WNW) 1,578 5.1 -14.6°
Maximum altitude 18:16:02 12° 327° (NNW) 1,440 4.5 -14.9°
Drops below altitude 10° 18:17:35 10° 353° (N) 1,579 4.4 -15.2°
Enters shadow 18:18:51 - 9° (N) 1,861 4.6 -15.5°
